This demonstration page uses our WeatherBlox Daily Observations layout. Learn more.

39.92423, -83.80882

Hourly Observations for May 6, 2017

Temp ( °F °C ) Dew Point ( °F °C ) Humidity (%) Winds ( mph kmh ) Pressure ( in mb ) Visibility ( mi km ) Precip ( " mm )
12:56 am 00:56 Clear 44 6.7 39 3.9 83 83 NW 12 19 29.65 1004 10 16.0934 0 0
1:56 am 01:56 Clear 43 6.1 39 3.9 86 86 NW 9 15 29.65 1004 10 16.0934 0 0
2:56 am 02:56 Clear 43 6.1 40 4.4 89 89 WNW 9 15 29.63 1004 10 16.0934 0 0
4:56 am 04:56 Clear 42 5.6 39 3.9 89 89 WNW 9 15 29.64 1004 10 16.0934 0 0
5:56 am 05:56 Clear 41 5 39 3.9 93 93 WNW 8 13 29.65 1004 10 16.0934 0 0
6:56 am 06:56 Sunny 40 4.4 39 3.9 97 97 WNW 7 11 29.66 1005 10 16.0934 0 0
7:56 am 07:56 Sunny 43 6.1 40 4.4 89 89 WNW 9 15 29.67 1005 10 16.0934 0 0
8:56 am 08:56 Mostly Sunny 47 8.3 41 5 80 80 WNW 10 17 29.68 1005 10 16.0934 0 0
9:56 am 09:56 Mostly Cloudy 48 8.9 41 5 77 77 W 10 17 29.68 1005 10 16.0934 0 0
10:56 am 10:56 Mostly Cloudy 51 10.6 42 5.6 71 71 WNW 13 20 29.68 1005 10 16.0934 0 0
11:56 am 11:56 Mostly Cloudy 54 12.2 43 6.1 67 67 WNW 10 17 29.68 1005 10 16.0934 0 0
12:03 pm 12:03 Mostly Cloudy 54 12 43 6 67 67 WNW 15 24 29.68 1005 10 16.0934 0 0
12:14 pm 12:14 Partly Cloudy 54 12 43 6 67 67 WNW 10 17 29.68 1005 10 16.0934 0 0
12:21 pm 12:21 Mostly Cloudy 54 12 43 6 67 67 NW 15 24 29.65 1004 10 16.0934 0 0
12:34 pm 12:34 Mostly Cloudy 55 13 43 6 63 63 WNW 16 26 29.68 1005 10 16.0934 0 0
12:56 pm 12:56 Mostly Cloudy 54 12.2 41 5 62 62 NW 12 19 29.68 1005 10 16.0934 0 0
1:56 pm 13:56 Mostly Cloudy 56 13.3 41 5 57 57 NW 10 17 29.67 1005 10 16.0934 0 0
2:56 pm 14:56 Mostly Cloudy 56 13.3 40 4.4 55 55 NNW 15 24 29.67 1005 10 16.0934 0 0
3:56 pm 15:56 Mostly Sunny 58 14.4 40 4.4 51 51 NNW 15 24 29.66 1005 10 16.0934 0 0
4:56 pm 16:56 Mostly Cloudy 58 14.4 39 3.9 50 50 NW 17 28 29.67 1005 10 16.0934 0 0
5:56 pm 17:56 Cloudy 55 12.8 39 3.9 55 55 WNW 12 19 29.69 1005 10 16.0934 0 0
6:56 pm 18:56 Cloudy 55 12.8 38 3.3 53 53 NW 10 17 29.7 1006 10 16.0934 0 0.0254
7:56 pm 19:56 Cloudy 55 12.8 38 3.3 53 53 NW 13 20 29.71 1006 10 16.0934 0 0
8:56 pm 20:56 Partly Cloudy 53 11.7 39 3.9 59 59 NW 13 20 29.73 1007 10 16.0934 0 0
9:56 pm 21:56 Partly Cloudy 51 10.6 39 3.9 64 64 NW 12 19 29.76 1008 10 16.0934 0 0
10:56 pm 22:56 Clear 48 8.9 38 3.3 68 68 WNW 12 19 29.78 1009 10 16.0934 0 0
11:56 pm 23:56 Clear 46 7.8 34 1.1 63 63 WNW 9 15 29.79 1009 10 16.0934 0 0

Powered by AerisWeather